Notices

What's New in latest Release from April 7th, 2021:

- Updated Glossary, including Speed of Maximum Gust, and Total Hourly Precipitation

- Updated national and regional climate services offices contacts and prices information

- Addition of station inventory lists for 1981-2010, 1971-2000, and 1961-1990 Normals.

If you haven't already, please take our survey and provide feedback about our website: https://eccc.sondage-survey.ca/f/LanguageSelection.aspx?s=442ca660-fcf1-47c0-95a9-59707d6fd709

Hourly Data Report for January 17, 2012

HALIFAX STANFIELD INT'L A
NOVA SCOTIA

44°52'48.060" N
63°30'00.050" W
145.40 m
8202250
71395
YHZ

Download Data

Hourly Data (January 2012)
Hourly Data Report for January 17, 2012
TIME
LST
Temp Definition
°C
Dew Point Definition
°C
Rel Hum Definition
%
Precip. Amount Definition
mm

Wind Dir Definition
10's deg

Wind Spd Definition
km/h
Visibility Definition
km
Stn Press Definition
kPa
Hmdx Definition


Wind Chill Definition


Weather Definition


00:00 -7.7 -9.9 84   21 22 24.1 100.51   -15 Cloudy
01:00 -6.1 -8.4 84   20 17 24.1 100.40   -12 Cloudy
02:00 -4.7 -6.8 85   20 19 24.1 100.28   -11 Snow Showers
03:00 -3.1 -5.5 83   20 20 24.1 100.19   -9 Cloudy
04:00 -1.1 -4.2 79   22 32 12.9 100.05   -8 Snow Showers
05:00 -0.1 -3.8 76   22 32 16.1 99.93   -7 Snow Showers
06:00 0.6 -2.8 78   21 35 24.1 99.82     Snow Showers
07:00 1.0 -0.9 87   21 37 24.1 99.73     Snow Showers
08:00 1.4 0.5 94   21 33 3.2 99.68     Rain Showers,Snow Showers,Fog
09:00 1.7 1.3 97   22 28 8.0 99.65     Rain Showers,Fog
10:00 2.0 1.5 96   23 20 24.1 99.61     Cloudy
11:00 2.1 1.6 96   23 20 24.1 99.55     Cloudy
12:00 2.1 1.4 95   25 15 24.1 99.46     Cloudy
13:00 2.0 1.1 94   25 13 24.1 99.38     Cloudy
14:00 2.1 0.9 92   25 9 24.1 99.28     Cloudy
15:00 1.9 1.0 94   25 7 24.1 99.31     Cloudy
16:00 1.8 0.9 94   30 4 16.1 99.33     Cloudy
17:00 1.4 0.7 95     0 16.1 99.36     Cloudy
18:00 1.0 0.6 97   14 4 16.1 99.37     Cloudy
19:00 1.0 0.7 98   13 6 16.1 99.34     Cloudy
20:00 0.9 0.8 99   13 9 9.7 99.27     Fog
21:00 0.9 0.7 99   11 7 9.7 99.24     Fog
22:00 0.9 0.7 99   12 15 8.0 99.08     Fog
23:00 1.0 0.9 99   13 20 2.4 98.95     Rain Showers,Fog

Notes on Data Quality.

Legend

  • E = Estimated
  • M = Missing
  • NA = Not Available*
  • [empty] = Indicates an unobserved value
Date modified: